Weather History for New Bedford, MA

Change the Weather History Date:

Wednesday, May 1, 2013

  Actual Average Record
Temperature  
Mean Temperature 50 °F -  
Max Temperature 66 °F 64 °F 79 °F (1957)
Min Temperature 34 °F 46 °F 30 °F (1999)
Degree Days  
Heating Degree Days 15    
Moisture  
Dew Point 40 °F    
Average Humidity 70    
Maximum Humidity 93    
Minimum Humidity 32    
Precipitation  
Precipitation 0.00 in - - ()
Sea Level Pressure  
Sea Level Pressure 30.44 in    
Wind  
Wind Speed 3 mph (East)    
Max Wind Speed 14 mph    
Max Gust Speed 20 mph    
Visibility 10 miles    
Events      
Averages and records for this station are not official NWS values.
T = Trace of Precipitation, MM = Missing Value Source: NWS Daily Summary

Daily Weather History Graph

Daily Weather History Graph

Search for Another Location

Airport:

Trip Planner

Search our weather history database for the weather conditions in past years. The results will help you decide how hot, cold, wet, or windy it might be!

Date:

Astronomy

May. 01, 2013 Rise Set
Actual Time 5:40 AM EDT 7:42 PM EDT
Civil Twilight 5:09 AM EDT 8:12 PM EDT
Nautical Twilight 4:32 AM EDT 8:49 PM EDT
Astronomical Twilight 3:52 AM EDT 9:30 PM EDT
Moon 12:49 AM EDT 11:14 AM EDT
Length of Visible Light 15h 02m
Length of Day
14h 02m
Waning Gibbous, 59% of the Moon is Illuminated
May 1
Waning Gibbous
May 2
Last Quarter
May 9
New
May 18
First Quarter
May 25
Full

Hourly Weather History & Observations

Time (EDT) Temp. Dew Point Humidity Pressure Visibility Wind Dir Wind Speed Gust Speed Precip Events Conditions
12:53 AM 37.0 °F 33.1 °F 86% 30.37 in 10.0 mi Calm Calm - N/A   Clear
1:53 AM 36.0 °F 30.9 °F 82% 30.37 in 10.0 mi Calm Calm - N/A   Clear
2:53 AM 35.1 °F 32.0 °F 89% 30.38 in 10.0 mi Calm Calm - N/A   Clear
3:53 AM 34.0 °F 32.0 °F 92% 30.38 in 10.0 mi Calm Calm - N/A   Clear
4:53 AM 34.0 °F 32.0 °F 92% 30.39 in 10.0 mi Calm Calm - N/A   Clear
5:53 AM 36.0 °F 33.1 °F 89% 30.41 in 10.0 mi Calm Calm - N/A   Clear
6:53 AM 43.0 °F 39.0 °F 86% 30.43 in 10.0 mi Calm Calm - N/A   Clear
7:53 AM 51.1 °F 41.0 °F 68% 30.45 in 10.0 mi Calm Calm - N/A   Clear
8:53 AM 55.9 °F 45.0 °F 67% 30.45 in 10.0 mi Variable 4.6 mph - N/A   Clear
9:53 AM 60.1 °F 45.0 °F 57% 30.46 in 10.0 mi ENE 5.8 mph - N/A   Clear
10:53 AM 63.0 °F 43.0 °F 48% 30.46 in 10.0 mi ENE 9.2 mph 16.1 mph N/A   Clear
11:53 AM 64.9 °F 43.0 °F 45% 30.46 in 10.0 mi NE 6.9 mph - N/A   Partly Cloudy
12:53 PM 66.9 °F 41.0 °F 39% 30.45 in 10.0 mi East 11.5 mph - N/A   Partly Cloudy
1:53 PM 64.9 °F 36.0 °F 34% 30.45 in 10.0 mi East 9.2 mph 19.6 mph N/A   Clear
2:53 PM 66.0 °F 35.1 °F 32% 30.45 in 10.0 mi East 13.8 mph 19.6 mph N/A   Clear
3:53 PM 62.1 °F 46.0 °F 56% 30.44 in 10.0 mi SE 11.5 mph - N/A   Clear
4:53 PM 60.1 °F 46.0 °F 60% 30.44 in 10.0 mi SE 13.8 mph - N/A   Clear
5:53 PM 59.0 °F 46.0 °F 62% 30.44 in 10.0 mi SE 8.1 mph - N/A   Clear
6:53 PM 57.0 °F 46.0 °F 67% 30.46 in 10.0 mi SE 8.1 mph - N/A   Clear
7:53 PM 53.1 °F 45.0 °F 74% 30.46 in 10.0 mi SE 3.5 mph - N/A   Clear
8:53 PM 50.0 °F 44.1 °F 80% 30.47 in 10.0 mi Calm Calm - N/A   Clear
9:53 PM 48.9 °F 44.1 °F 83% 30.47 in 10.0 mi Calm Calm - N/A   Clear
10:53 PM 44.1 °F 42.1 °F 93% 30.47 in 10.0 mi Calm Calm - N/A   Clear
11:53 PM 44.1 °F 42.1 °F 93% 30.47 in 10.0 mi Calm Calm - N/A   Clear